<?xml version="1.0"?>
<gpx xmlns="http://www.topografix.com/GPX/1/1" xmlns:xsi="http://www.w3.org/2001/XMLSchema-instance" version="1.1" creator="GPX RubyGem 1.0.0 -- http://dougfales.github.io/gpx/" xsi:schemaLocation="http://www.topografix.com/GPX/1/1 http://www.topografix.com/GPX/1/1/gpx.xsd">
  <metadata>
    <name/>
    <time>2026-05-07T16:27:30+00:00</time>
    <bound minlat="90.0" minlon="180.0" maxlat="-90.0" maxlon="-180.0"/>
  </metadata>
  <trk>
    <name/>
    <trkseg>
      <trkpt lat="46.530714" lon="10.17222">
        <time>1970-01-01T00:00:00+00:00</time>
        <ele>2123.0</ele>
      </trkpt>
      <trkpt lat="46.530863" lon="10.172099">
        <time>1970-01-01T00:00:00+00:00</time>
        <ele>2126.0</ele>
      </trkpt>
      <trkpt lat="46.530988" lon="10.171941">
        <time>1970-01-01T00:00:00+00:00</time>
        <ele>2126.0</ele>
      </trkpt>
      <trkpt lat="46.531133" lon="10.171654">
        <time>1970-01-01T00:00:00+00:00</time>
        <ele>2130.0</ele>
      </trkpt>
      <trkpt lat="46.53122" lon="10.171438">
        <time>1970-01-01T00:00:00+00:00</time>
        <ele>2133.0</ele>
      </trkpt>
      <trkpt lat="46.531347" lon="10.171199">
        <time>1970-01-01T00:00:00+00:00</time>
        <ele>2136.0</ele>
      </trkpt>
      <trkpt lat="46.531308" lon="10.171097">
        <time>1970-01-01T00:00:00+00:00</time>
        <ele>2137.0</ele>
      </trkpt>
      <trkpt lat="46.531353" lon="10.171074">
        <time>1970-01-01T00:00:00+00:00</time>
        <ele>2137.0</ele>
      </trkpt>
      <trkpt lat="46.531388" lon="10.171095">
        <time>1970-01-01T00:00:00+00:00</time>
        <ele>2137.0</ele>
      </trkpt>
      <trkpt lat="46.531456" lon="10.171093">
        <time>1970-01-01T00:00:00+00:00</time>
        <ele>2137.0</ele>
      </trkpt>
      <trkpt lat="46.53192" lon="10.170403">
        <time>1970-01-01T00:00:00+00:00</time>
        <ele>2142.0</ele>
      </trkpt>
      <trkpt lat="46.532164" lon="10.170301">
        <time>1970-01-01T00:00:00+00:00</time>
        <ele>2142.0</ele>
      </trkpt>
      <trkpt lat="46.532178" lon="10.170274">
        <time>1970-01-01T00:00:00+00:00</time>
        <ele>2142.0</ele>
      </trkpt>
      <trkpt lat="46.532233" lon="10.17025">
        <time>1970-01-01T00:00:00+00:00</time>
        <ele>2143.0</ele>
      </trkpt>
      <trkpt lat="46.532463" lon="10.170501">
        <time>1970-01-01T00:00:00+00:00</time>
        <ele>2146.0</ele>
      </trkpt>
      <trkpt lat="46.532959" lon="10.170744">
        <time>1970-01-01T00:00:00+00:00</time>
        <ele>2153.0</ele>
      </trkpt>
      <trkpt lat="46.533279" lon="10.170808">
        <time>1970-01-01T00:00:00+00:00</time>
        <ele>2156.0</ele>
      </trkpt>
      <trkpt lat="46.534309" lon="10.170379">
        <time>1970-01-01T00:00:00+00:00</time>
        <ele>2168.0</ele>
      </trkpt>
      <trkpt lat="46.534583" lon="10.170247">
        <time>1970-01-01T00:00:00+00:00</time>
        <ele>2170.0</ele>
      </trkpt>
      <trkpt lat="46.534931" lon="10.170035">
        <time>1970-01-01T00:00:00+00:00</time>
        <ele>2174.0</ele>
      </trkpt>
      <trkpt lat="46.535832" lon="10.169242">
        <time>1970-01-01T00:00:00+00:00</time>
        <ele>2187.0</ele>
      </trkpt>
      <trkpt lat="46.536175" lon="10.168791">
        <time>1970-01-01T00:00:00+00:00</time>
        <ele>2192.0</ele>
      </trkpt>
      <trkpt lat="46.536778" lon="10.168147">
        <time>1970-01-01T00:00:00+00:00</time>
        <ele>2198.0</ele>
      </trkpt>
      <trkpt lat="46.537338" lon="10.167161">
        <time>1970-01-01T00:00:00+00:00</time>
        <ele>2210.0</ele>
      </trkpt>
      <trkpt lat="46.537848" lon="10.166528">
        <time>1970-01-01T00:00:00+00:00</time>
        <ele>2211.0</ele>
      </trkpt>
      <trkpt lat="46.537984" lon="10.166243">
        <time>1970-01-01T00:00:00+00:00</time>
        <ele>2211.0</ele>
      </trkpt>
      <trkpt lat="46.537922" lon="10.166302">
        <time>1970-01-01T00:00:00+00:00</time>
        <ele>2212.0</ele>
      </trkpt>
      <trkpt lat="46.537895" lon="10.166262">
        <time>1970-01-01T00:00:00+00:00</time>
        <ele>2212.0</ele>
      </trkpt>
      <trkpt lat="46.537886" lon="10.166217">
        <time>1970-01-01T00:00:00+00:00</time>
        <ele>2212.0</ele>
      </trkpt>
      <trkpt lat="46.537892" lon="10.165924">
        <time>1970-01-01T00:00:00+00:00</time>
        <ele>2212.0</ele>
      </trkpt>
      <trkpt lat="46.537929" lon="10.165699">
        <time>1970-01-01T00:00:00+00:00</time>
        <ele>2213.0</ele>
      </trkpt>
      <trkpt lat="46.53791" lon="10.165476">
        <time>1970-01-01T00:00:00+00:00</time>
        <ele>2213.0</ele>
      </trkpt>
      <trkpt lat="46.537811" lon="10.165221">
        <time>1970-01-01T00:00:00+00:00</time>
        <ele>2216.0</ele>
      </trkpt>
      <trkpt lat="46.537698" lon="10.165022">
        <time>1970-01-01T00:00:00+00:00</time>
        <ele>2218.0</ele>
      </trkpt>
      <trkpt lat="46.537527" lon="10.164907">
        <time>1970-01-01T00:00:00+00:00</time>
        <ele>2221.0</ele>
      </trkpt>
      <trkpt lat="46.537433" lon="10.164907">
        <time>1970-01-01T00:00:00+00:00</time>
        <ele>2222.0</ele>
      </trkpt>
      <trkpt lat="46.537344" lon="10.164769">
        <time>1970-01-01T00:00:00+00:00</time>
        <ele>2224.0</ele>
      </trkpt>
      <trkpt lat="46.537293" lon="10.164597">
        <time>1970-01-01T00:00:00+00:00</time>
        <ele>2225.0</ele>
      </trkpt>
      <trkpt lat="46.537117" lon="10.164232">
        <time>1970-01-01T00:00:00+00:00</time>
        <ele>2227.0</ele>
      </trkpt>
      <trkpt lat="46.537003" lon="10.164157">
        <time>1970-01-01T00:00:00+00:00</time>
        <ele>2229.0</ele>
      </trkpt>
      <trkpt lat="46.536899" lon="10.1642">
        <time>1970-01-01T00:00:00+00:00</time>
        <ele>2230.0</ele>
      </trkpt>
      <trkpt lat="46.53677" lon="10.164452">
        <time>1970-01-01T00:00:00+00:00</time>
        <ele>2233.0</ele>
      </trkpt>
      <trkpt lat="46.53666" lon="10.16479">
        <time>1970-01-01T00:00:00+00:00</time>
        <ele>2235.0</ele>
      </trkpt>
      <trkpt lat="46.536547" lon="10.164944">
        <time>1970-01-01T00:00:00+00:00</time>
        <ele>2236.0</ele>
      </trkpt>
      <trkpt lat="46.536412" lon="10.165004">
        <time>1970-01-01T00:00:00+00:00</time>
        <ele>2239.0</ele>
      </trkpt>
      <trkpt lat="46.536154" lon="10.16487">
        <time>1970-01-01T00:00:00+00:00</time>
        <ele>2245.0</ele>
      </trkpt>
      <trkpt lat="46.535838" lon="10.164767">
        <time>1970-01-01T00:00:00+00:00</time>
        <ele>2249.0</ele>
      </trkpt>
      <trkpt lat="46.535572" lon="10.164777">
        <time>1970-01-01T00:00:00+00:00</time>
        <ele>2251.0</ele>
      </trkpt>
      <trkpt lat="46.535311" lon="10.164829">
        <time>1970-01-01T00:00:00+00:00</time>
        <ele>2251.0</ele>
      </trkpt>
      <trkpt lat="46.53422" lon="10.164655">
        <time>1970-01-01T00:00:00+00:00</time>
        <ele>2258.0</ele>
      </trkpt>
      <trkpt lat="46.533914" lon="10.164655">
        <time>1970-01-01T00:00:00+00:00</time>
        <ele>2261.0</ele>
      </trkpt>
      <trkpt lat="46.533623" lon="10.164521">
        <time>1970-01-01T00:00:00+00:00</time>
        <ele>2267.0</ele>
      </trkpt>
      <trkpt lat="46.533254" lon="10.164317">
        <time>1970-01-01T00:00:00+00:00</time>
        <ele>2276.0</ele>
      </trkpt>
      <trkpt lat="46.53287" lon="10.164149">
        <time>1970-01-01T00:00:00+00:00</time>
        <ele>2282.0</ele>
      </trkpt>
      <trkpt lat="46.532749" lon="10.164057">
        <time>1970-01-01T00:00:00+00:00</time>
        <ele>2285.0</ele>
      </trkpt>
      <trkpt lat="46.53273" lon="10.163969">
        <time>1970-01-01T00:00:00+00:00</time>
        <ele>2286.0</ele>
      </trkpt>
      <trkpt lat="46.532735" lon="10.163876">
        <time>1970-01-01T00:00:00+00:00</time>
        <ele>2288.0</ele>
      </trkpt>
      <trkpt lat="46.532951" lon="10.163192">
        <time>1970-01-01T00:00:00+00:00</time>
        <ele>2294.0</ele>
      </trkpt>
      <trkpt lat="46.533014" lon="10.162746">
        <time>1970-01-01T00:00:00+00:00</time>
        <ele>2301.0</ele>
      </trkpt>
      <trkpt lat="46.533178" lon="10.162184">
        <time>1970-01-01T00:00:00+00:00</time>
        <ele>2304.0</ele>
      </trkpt>
      <trkpt lat="46.533221" lon="10.161391">
        <time>1970-01-01T00:00:00+00:00</time>
        <ele>2314.0</ele>
      </trkpt>
      <trkpt lat="46.53321" lon="10.161132">
        <time>1970-01-01T00:00:00+00:00</time>
        <ele>2317.0</ele>
      </trkpt>
      <trkpt lat="46.533139" lon="10.161002">
        <time>1970-01-01T00:00:00+00:00</time>
        <ele>2319.0</ele>
      </trkpt>
      <trkpt lat="46.533015" lon="10.161">
        <time>1970-01-01T00:00:00+00:00</time>
        <ele>2321.0</ele>
      </trkpt>
      <trkpt lat="46.532508" lon="10.161405">
        <time>1970-01-01T00:00:00+00:00</time>
        <ele>2332.0</ele>
      </trkpt>
      <trkpt lat="46.532209" lon="10.161582">
        <time>1970-01-01T00:00:00+00:00</time>
        <ele>2336.0</ele>
      </trkpt>
      <trkpt lat="46.531936" lon="10.16163">
        <time>1970-01-01T00:00:00+00:00</time>
        <ele>2339.0</ele>
      </trkpt>
      <trkpt lat="46.531685" lon="10.161732">
        <time>1970-01-01T00:00:00+00:00</time>
        <ele>2338.0</ele>
      </trkpt>
      <trkpt lat="46.531501" lon="10.161914">
        <time>1970-01-01T00:00:00+00:00</time>
        <ele>2338.0</ele>
      </trkpt>
      <trkpt lat="46.53135" lon="10.162283">
        <time>1970-01-01T00:00:00+00:00</time>
        <ele>2338.0</ele>
      </trkpt>
      <trkpt lat="46.531246" lon="10.162428">
        <time>1970-01-01T00:00:00+00:00</time>
        <ele>2338.0</ele>
      </trkpt>
      <trkpt lat="46.531184" lon="10.162464">
        <time>1970-01-01T00:00:00+00:00</time>
        <ele>2338.0</ele>
      </trkpt>
      <trkpt lat="46.530906" lon="10.16252">
        <time>1970-01-01T00:00:00+00:00</time>
        <ele>2338.0</ele>
      </trkpt>
      <trkpt lat="46.530427" lon="10.162655">
        <time>1970-01-01T00:00:00+00:00</time>
        <ele>2347.0</ele>
      </trkpt>
      <trkpt lat="46.530246" lon="10.162735">
        <time>1970-01-01T00:00:00+00:00</time>
        <ele>2349.0</ele>
      </trkpt>
      <trkpt lat="46.529751" lon="10.162891">
        <time>1970-01-01T00:00:00+00:00</time>
        <ele>2354.0</ele>
      </trkpt>
      <trkpt lat="46.529691" lon="10.162884">
        <time>1970-01-01T00:00:00+00:00</time>
        <ele>2354.0</ele>
      </trkpt>
      <trkpt lat="46.52961" lon="10.162876">
        <time>1970-01-01T00:00:00+00:00</time>
        <ele>2355.0</ele>
      </trkpt>
      <trkpt lat="46.529493" lon="10.162789">
        <time>1970-01-01T00:00:00+00:00</time>
        <ele>2356.0</ele>
      </trkpt>
      <trkpt lat="46.52943" lon="10.162769">
        <time>1970-01-01T00:00:00+00:00</time>
        <ele>2357.0</ele>
      </trkpt>
      <trkpt lat="46.529254" lon="10.162559">
        <time>1970-01-01T00:00:00+00:00</time>
        <ele>2360.0</ele>
      </trkpt>
      <trkpt lat="46.529106" lon="10.162246">
        <time>1970-01-01T00:00:00+00:00</time>
        <ele>2364.0</ele>
      </trkpt>
      <trkpt lat="46.528917" lon="10.161961">
        <time>1970-01-01T00:00:00+00:00</time>
        <ele>2369.0</ele>
      </trkpt>
      <trkpt lat="46.528677" lon="10.16183">
        <time>1970-01-01T00:00:00+00:00</time>
        <ele>2375.0</ele>
      </trkpt>
      <trkpt lat="46.528266" lon="10.161519">
        <time>1970-01-01T00:00:00+00:00</time>
        <ele>2384.0</ele>
      </trkpt>
      <trkpt lat="46.528049" lon="10.161438">
        <time>1970-01-01T00:00:00+00:00</time>
        <ele>2386.0</ele>
      </trkpt>
      <trkpt lat="46.527911" lon="10.161435">
        <time>1970-01-01T00:00:00+00:00</time>
        <ele>2388.0</ele>
      </trkpt>
      <trkpt lat="46.527836" lon="10.161433">
        <time>1970-01-01T00:00:00+00:00</time>
        <ele>2390.0</ele>
      </trkpt>
      <trkpt lat="46.527559" lon="10.161195">
        <time>1970-01-01T00:00:00+00:00</time>
        <ele>2393.0</ele>
      </trkpt>
      <trkpt lat="46.527464" lon="10.161139">
        <time>1970-01-01T00:00:00+00:00</time>
        <ele>2396.0</ele>
      </trkpt>
      <trkpt lat="46.527381" lon="10.16109">
        <time>1970-01-01T00:00:00+00:00</time>
        <ele>2399.0</ele>
      </trkpt>
      <trkpt lat="46.527216" lon="10.160992">
        <time>1970-01-01T00:00:00+00:00</time>
        <ele>2404.0</ele>
      </trkpt>
      <trkpt lat="46.527157" lon="10.160906">
        <time>1970-01-01T00:00:00+00:00</time>
        <ele>2405.0</ele>
      </trkpt>
      <trkpt lat="46.527068" lon="10.160697">
        <time>1970-01-01T00:00:00+00:00</time>
        <ele>2406.0</ele>
      </trkpt>
      <trkpt lat="46.527024" lon="10.160391">
        <time>1970-01-01T00:00:00+00:00</time>
        <ele>2405.0</ele>
      </trkpt>
      <trkpt lat="46.526976" lon="10.160273">
        <time>1970-01-01T00:00:00+00:00</time>
        <ele>2405.0</ele>
      </trkpt>
      <trkpt lat="46.526832" lon="10.160182">
        <time>1970-01-01T00:00:00+00:00</time>
        <ele>2406.0</ele>
      </trkpt>
      <trkpt lat="46.526717" lon="10.160208">
        <time>1970-01-01T00:00:00+00:00</time>
        <ele>2409.0</ele>
      </trkpt>
      <trkpt lat="46.526592" lon="10.160358">
        <time>1970-01-01T00:00:00+00:00</time>
        <ele>2413.0</ele>
      </trkpt>
      <trkpt lat="46.526441" lon="10.160439">
        <time>1970-01-01T00:00:00+00:00</time>
        <ele>2416.0</ele>
      </trkpt>
      <trkpt lat="46.526153" lon="10.160407">
        <time>1970-01-01T00:00:00+00:00</time>
        <ele>2423.0</ele>
      </trkpt>
      <trkpt lat="46.526016" lon="10.160343">
        <time>1970-01-01T00:00:00+00:00</time>
        <ele>2425.0</ele>
      </trkpt>
      <trkpt lat="46.525824" lon="10.160058">
        <time>1970-01-01T00:00:00+00:00</time>
        <ele>2425.0</ele>
      </trkpt>
      <trkpt lat="46.525621" lon="10.159887">
        <time>1970-01-01T00:00:00+00:00</time>
        <ele>2426.0</ele>
      </trkpt>
      <trkpt lat="46.525477" lon="10.159838">
        <time>1970-01-01T00:00:00+00:00</time>
        <ele>2426.0</ele>
      </trkpt>
      <trkpt lat="46.525289" lon="10.15986">
        <time>1970-01-01T00:00:00+00:00</time>
        <ele>2427.0</ele>
      </trkpt>
      <trkpt lat="46.525153" lon="10.159935">
        <time>1970-01-01T00:00:00+00:00</time>
        <ele>2429.0</ele>
      </trkpt>
      <trkpt lat="46.524772" lon="10.160005">
        <time>1970-01-01T00:00:00+00:00</time>
        <ele>2432.0</ele>
      </trkpt>
      <trkpt lat="46.524676" lon="10.159978">
        <time>1970-01-01T00:00:00+00:00</time>
        <ele>2432.0</ele>
      </trkpt>
      <trkpt lat="46.524617" lon="10.159903">
        <time>1970-01-01T00:00:00+00:00</time>
        <ele>2431.0</ele>
      </trkpt>
      <trkpt lat="46.524448" lon="10.159838">
        <time>1970-01-01T00:00:00+00:00</time>
        <ele>2431.0</ele>
      </trkpt>
      <trkpt lat="46.524359" lon="10.160253">
        <time>1970-01-01T00:00:00+00:00</time>
        <ele>2437.0</ele>
      </trkpt>
      <trkpt lat="46.524181" lon="10.160789">
        <time>1970-01-01T00:00:00+00:00</time>
        <ele>2441.0</ele>
      </trkpt>
      <trkpt lat="46.52399" lon="10.161122">
        <time>1970-01-01T00:00:00+00:00</time>
        <ele>2442.0</ele>
      </trkpt>
      <trkpt lat="46.523886" lon="10.161422">
        <time>1970-01-01T00:00:00+00:00</time>
        <ele>2443.0</ele>
      </trkpt>
      <trkpt lat="46.523694" lon="10.161894">
        <time>1970-01-01T00:00:00+00:00</time>
        <ele>2443.0</ele>
      </trkpt>
      <trkpt lat="46.523502" lon="10.162173">
        <time>1970-01-01T00:00:00+00:00</time>
        <ele>2444.0</ele>
      </trkpt>
      <trkpt lat="46.523266" lon="10.162474">
        <time>1970-01-01T00:00:00+00:00</time>
        <ele>2446.0</ele>
      </trkpt>
      <trkpt lat="46.522897" lon="10.162624">
        <time>1970-01-01T00:00:00+00:00</time>
        <ele>2453.0</ele>
      </trkpt>
      <trkpt lat="46.522439" lon="10.162731">
        <time>1970-01-01T00:00:00+00:00</time>
        <ele>2463.0</ele>
      </trkpt>
      <trkpt lat="46.521924" lon="10.162507">
        <time>1970-01-01T00:00:00+00:00</time>
        <ele>2470.0</ele>
      </trkpt>
      <trkpt lat="46.521671" lon="10.162366">
        <time>1970-01-01T00:00:00+00:00</time>
        <ele>2470.0</ele>
      </trkpt>
      <trkpt lat="46.521347" lon="10.162238">
        <time>1970-01-01T00:00:00+00:00</time>
        <ele>2474.0</ele>
      </trkpt>
      <trkpt lat="46.520963" lon="10.162216">
        <time>1970-01-01T00:00:00+00:00</time>
        <ele>2478.0</ele>
      </trkpt>
      <trkpt lat="46.520868" lon="10.162133">
        <time>1970-01-01T00:00:00+00:00</time>
        <ele>2481.0</ele>
      </trkpt>
      <trkpt lat="46.520776" lon="10.161967">
        <time>1970-01-01T00:00:00+00:00</time>
        <ele>2486.0</ele>
      </trkpt>
      <trkpt lat="46.520758" lon="10.161756">
        <time>1970-01-01T00:00:00+00:00</time>
        <ele>2490.0</ele>
      </trkpt>
      <trkpt lat="46.52086" lon="10.161337">
        <time>1970-01-01T00:00:00+00:00</time>
        <ele>2495.0</ele>
      </trkpt>
      <trkpt lat="46.520911" lon="10.16091">
        <time>1970-01-01T00:00:00+00:00</time>
        <ele>2498.0</ele>
      </trkpt>
      <trkpt lat="46.52092" lon="10.160112">
        <time>1970-01-01T00:00:00+00:00</time>
        <ele>2505.0</ele>
      </trkpt>
      <trkpt lat="46.520837" lon="10.159933">
        <time>1970-01-01T00:00:00+00:00</time>
        <ele>2507.0</ele>
      </trkpt>
      <trkpt lat="46.520652" lon="10.159714">
        <time>1970-01-01T00:00:00+00:00</time>
        <ele>2513.0</ele>
      </trkpt>
      <trkpt lat="46.520493" lon="10.159615">
        <time>1970-01-01T00:00:00+00:00</time>
        <ele>2517.0</ele>
      </trkpt>
      <trkpt lat="46.520228" lon="10.159535">
        <time>1970-01-01T00:00:00+00:00</time>
        <ele>2525.0</ele>
      </trkpt>
      <trkpt lat="46.519911" lon="10.159353">
        <time>1970-01-01T00:00:00+00:00</time>
        <ele>2529.0</ele>
      </trkpt>
      <trkpt lat="46.519661" lon="10.159181">
        <time>1970-01-01T00:00:00+00:00</time>
        <ele>2529.0</ele>
      </trkpt>
      <trkpt lat="46.519527" lon="10.159151">
        <time>1970-01-01T00:00:00+00:00</time>
        <ele>2530.0</ele>
      </trkpt>
      <trkpt lat="46.519419" lon="10.159172">
        <time>1970-01-01T00:00:00+00:00</time>
        <ele>2531.0</ele>
      </trkpt>
      <trkpt lat="46.519256" lon="10.159449">
        <time>1970-01-01T00:00:00+00:00</time>
        <ele>2534.0</ele>
      </trkpt>
      <trkpt lat="46.518804" lon="10.159839">
        <time>1970-01-01T00:00:00+00:00</time>
        <ele>2545.0</ele>
      </trkpt>
      <trkpt lat="46.518578" lon="10.160086">
        <time>1970-01-01T00:00:00+00:00</time>
        <ele>2551.0</ele>
      </trkpt>
      <trkpt lat="46.518401" lon="10.160177">
        <time>1970-01-01T00:00:00+00:00</time>
        <ele>2553.0</ele>
      </trkpt>
      <trkpt lat="46.517674" lon="10.160105">
        <time>1970-01-01T00:00:00+00:00</time>
        <ele>2558.0</ele>
      </trkpt>
      <trkpt lat="46.517265" lon="10.160131">
        <time>1970-01-01T00:00:00+00:00</time>
        <ele>2561.0</ele>
      </trkpt>
      <trkpt lat="46.51713" lon="10.160086">
        <time>1970-01-01T00:00:00+00:00</time>
        <ele>2563.0</ele>
      </trkpt>
      <trkpt lat="46.517015" lon="10.159975">
        <time>1970-01-01T00:00:00+00:00</time>
        <ele>2565.0</ele>
      </trkpt>
      <trkpt lat="46.517012" lon="10.159794">
        <time>1970-01-01T00:00:00+00:00</time>
        <ele>2566.0</ele>
      </trkpt>
      <trkpt lat="46.517012" lon="10.159794">
        <time>1970-01-01T00:00:00+00:00</time>
        <ele>2566.0</ele>
      </trkpt>
      <trkpt lat="46.517015" lon="10.159975">
        <time>1970-01-01T00:00:00+00:00</time>
        <ele>2565.0</ele>
      </trkpt>
      <trkpt lat="46.51713" lon="10.160086">
        <time>1970-01-01T00:00:00+00:00</time>
        <ele>2563.0</ele>
      </trkpt>
      <trkpt lat="46.517265" lon="10.160131">
        <time>1970-01-01T00:00:00+00:00</time>
        <ele>2561.0</ele>
      </trkpt>
      <trkpt lat="46.517674" lon="10.160105">
        <time>1970-01-01T00:00:00+00:00</time>
        <ele>2558.0</ele>
      </trkpt>
      <trkpt lat="46.518401" lon="10.160177">
        <time>1970-01-01T00:00:00+00:00</time>
        <ele>2553.0</ele>
      </trkpt>
      <trkpt lat="46.518578" lon="10.160086">
        <time>1970-01-01T00:00:00+00:00</time>
        <ele>2551.0</ele>
      </trkpt>
      <trkpt lat="46.518804" lon="10.159839">
        <time>1970-01-01T00:00:00+00:00</time>
        <ele>2545.0</ele>
      </trkpt>
      <trkpt lat="46.519256" lon="10.159449">
        <time>1970-01-01T00:00:00+00:00</time>
        <ele>2534.0</ele>
      </trkpt>
      <trkpt lat="46.519419" lon="10.159172">
        <time>1970-01-01T00:00:00+00:00</time>
        <ele>2531.0</ele>
      </trkpt>
      <trkpt lat="46.519527" lon="10.159151">
        <time>1970-01-01T00:00:00+00:00</time>
        <ele>2530.0</ele>
      </trkpt>
      <trkpt lat="46.519661" lon="10.159181">
        <time>1970-01-01T00:00:00+00:00</time>
        <ele>2529.0</ele>
      </trkpt>
      <trkpt lat="46.519911" lon="10.159353">
        <time>1970-01-01T00:00:00+00:00</time>
        <ele>2529.0</ele>
      </trkpt>
      <trkpt lat="46.520228" lon="10.159535">
        <time>1970-01-01T00:00:00+00:00</time>
        <ele>2525.0</ele>
      </trkpt>
      <trkpt lat="46.520493" lon="10.159615">
        <time>1970-01-01T00:00:00+00:00</time>
        <ele>2517.0</ele>
      </trkpt>
      <trkpt lat="46.520652" lon="10.159714">
        <time>1970-01-01T00:00:00+00:00</time>
        <ele>2513.0</ele>
      </trkpt>
      <trkpt lat="46.520837" lon="10.159933">
        <time>1970-01-01T00:00:00+00:00</time>
        <ele>2507.0</ele>
      </trkpt>
      <trkpt lat="46.52092" lon="10.160112">
        <time>1970-01-01T00:00:00+00:00</time>
        <ele>2505.0</ele>
      </trkpt>
      <trkpt lat="46.520911" lon="10.16091">
        <time>1970-01-01T00:00:00+00:00</time>
        <ele>2498.0</ele>
      </trkpt>
      <trkpt lat="46.52086" lon="10.161337">
        <time>1970-01-01T00:00:00+00:00</time>
        <ele>2495.0</ele>
      </trkpt>
      <trkpt lat="46.520758" lon="10.161756">
        <time>1970-01-01T00:00:00+00:00</time>
        <ele>2490.0</ele>
      </trkpt>
      <trkpt lat="46.520776" lon="10.161967">
        <time>1970-01-01T00:00:00+00:00</time>
        <ele>2486.0</ele>
      </trkpt>
      <trkpt lat="46.520868" lon="10.162133">
        <time>1970-01-01T00:00:00+00:00</time>
        <ele>2481.0</ele>
      </trkpt>
      <trkpt lat="46.520963" lon="10.162216">
        <time>1970-01-01T00:00:00+00:00</time>
        <ele>2478.0</ele>
      </trkpt>
      <trkpt lat="46.521347" lon="10.162238">
        <time>1970-01-01T00:00:00+00:00</time>
        <ele>2474.0</ele>
      </trkpt>
      <trkpt lat="46.521671" lon="10.162366">
        <time>1970-01-01T00:00:00+00:00</time>
        <ele>2470.0</ele>
      </trkpt>
      <trkpt lat="46.521924" lon="10.162507">
        <time>1970-01-01T00:00:00+00:00</time>
        <ele>2470.0</ele>
      </trkpt>
      <trkpt lat="46.522439" lon="10.162731">
        <time>1970-01-01T00:00:00+00:00</time>
        <ele>2463.0</ele>
      </trkpt>
      <trkpt lat="46.522897" lon="10.162624">
        <time>1970-01-01T00:00:00+00:00</time>
        <ele>2453.0</ele>
      </trkpt>
      <trkpt lat="46.523266" lon="10.162474">
        <time>1970-01-01T00:00:00+00:00</time>
        <ele>2446.0</ele>
      </trkpt>
      <trkpt lat="46.523502" lon="10.162173">
        <time>1970-01-01T00:00:00+00:00</time>
        <ele>2444.0</ele>
      </trkpt>
      <trkpt lat="46.523694" lon="10.161894">
        <time>1970-01-01T00:00:00+00:00</time>
        <ele>2443.0</ele>
      </trkpt>
      <trkpt lat="46.523886" lon="10.161422">
        <time>1970-01-01T00:00:00+00:00</time>
        <ele>2443.0</ele>
      </trkpt>
      <trkpt lat="46.52399" lon="10.161122">
        <time>1970-01-01T00:00:00+00:00</time>
        <ele>2442.0</ele>
      </trkpt>
      <trkpt lat="46.524181" lon="10.160789">
        <time>1970-01-01T00:00:00+00:00</time>
        <ele>2441.0</ele>
      </trkpt>
      <trkpt lat="46.524359" lon="10.160253">
        <time>1970-01-01T00:00:00+00:00</time>
        <ele>2437.0</ele>
      </trkpt>
      <trkpt lat="46.524448" lon="10.159838">
        <time>1970-01-01T00:00:00+00:00</time>
        <ele>2431.0</ele>
      </trkpt>
      <trkpt lat="46.524617" lon="10.159903">
        <time>1970-01-01T00:00:00+00:00</time>
        <ele>2431.0</ele>
      </trkpt>
      <trkpt lat="46.524676" lon="10.159978">
        <time>1970-01-01T00:00:00+00:00</time>
        <ele>2432.0</ele>
      </trkpt>
      <trkpt lat="46.524772" lon="10.160005">
        <time>1970-01-01T00:00:00+00:00</time>
        <ele>2432.0</ele>
      </trkpt>
      <trkpt lat="46.525153" lon="10.159935">
        <time>1970-01-01T00:00:00+00:00</time>
        <ele>2429.0</ele>
      </trkpt>
      <trkpt lat="46.525289" lon="10.15986">
        <time>1970-01-01T00:00:00+00:00</time>
        <ele>2427.0</ele>
      </trkpt>
      <trkpt lat="46.525477" lon="10.159838">
        <time>1970-01-01T00:00:00+00:00</time>
        <ele>2426.0</ele>
      </trkpt>
      <trkpt lat="46.525621" lon="10.159887">
        <time>1970-01-01T00:00:00+00:00</time>
        <ele>2426.0</ele>
      </trkpt>
      <trkpt lat="46.525824" lon="10.160058">
        <time>1970-01-01T00:00:00+00:00</time>
        <ele>2425.0</ele>
      </trkpt>
      <trkpt lat="46.526016" lon="10.160343">
        <time>1970-01-01T00:00:00+00:00</time>
        <ele>2425.0</ele>
      </trkpt>
      <trkpt lat="46.526153" lon="10.160407">
        <time>1970-01-01T00:00:00+00:00</time>
        <ele>2423.0</ele>
      </trkpt>
      <trkpt lat="46.526441" lon="10.160439">
        <time>1970-01-01T00:00:00+00:00</time>
        <ele>2416.0</ele>
      </trkpt>
      <trkpt lat="46.526592" lon="10.160358">
        <time>1970-01-01T00:00:00+00:00</time>
        <ele>2413.0</ele>
      </trkpt>
      <trkpt lat="46.526717" lon="10.160208">
        <time>1970-01-01T00:00:00+00:00</time>
        <ele>2409.0</ele>
      </trkpt>
      <trkpt lat="46.526832" lon="10.160182">
        <time>1970-01-01T00:00:00+00:00</time>
        <ele>2406.0</ele>
      </trkpt>
      <trkpt lat="46.526976" lon="10.160273">
        <time>1970-01-01T00:00:00+00:00</time>
        <ele>2405.0</ele>
      </trkpt>
      <trkpt lat="46.527024" lon="10.160391">
        <time>1970-01-01T00:00:00+00:00</time>
        <ele>2405.0</ele>
      </trkpt>
      <trkpt lat="46.527068" lon="10.160697">
        <time>1970-01-01T00:00:00+00:00</time>
        <ele>2406.0</ele>
      </trkpt>
      <trkpt lat="46.527157" lon="10.160906">
        <time>1970-01-01T00:00:00+00:00</time>
        <ele>2405.0</ele>
      </trkpt>
      <trkpt lat="46.527216" lon="10.160992">
        <time>1970-01-01T00:00:00+00:00</time>
        <ele>2404.0</ele>
      </trkpt>
      <trkpt lat="46.527381" lon="10.16109">
        <time>1970-01-01T00:00:00+00:00</time>
        <ele>2399.0</ele>
      </trkpt>
      <trkpt lat="46.527464" lon="10.161139">
        <time>1970-01-01T00:00:00+00:00</time>
        <ele>2396.0</ele>
      </trkpt>
      <trkpt lat="46.527559" lon="10.161195">
        <time>1970-01-01T00:00:00+00:00</time>
        <ele>2393.0</ele>
      </trkpt>
      <trkpt lat="46.527836" lon="10.161433">
        <time>1970-01-01T00:00:00+00:00</time>
        <ele>2390.0</ele>
      </trkpt>
      <trkpt lat="46.527911" lon="10.161435">
        <time>1970-01-01T00:00:00+00:00</time>
        <ele>2388.0</ele>
      </trkpt>
      <trkpt lat="46.528049" lon="10.161438">
        <time>1970-01-01T00:00:00+00:00</time>
        <ele>2386.0</ele>
      </trkpt>
      <trkpt lat="46.528266" lon="10.161519">
        <time>1970-01-01T00:00:00+00:00</time>
        <ele>2384.0</ele>
      </trkpt>
      <trkpt lat="46.528677" lon="10.16183">
        <time>1970-01-01T00:00:00+00:00</time>
        <ele>2375.0</ele>
      </trkpt>
      <trkpt lat="46.528917" lon="10.161961">
        <time>1970-01-01T00:00:00+00:00</time>
        <ele>2369.0</ele>
      </trkpt>
      <trkpt lat="46.529106" lon="10.162246">
        <time>1970-01-01T00:00:00+00:00</time>
        <ele>2364.0</ele>
      </trkpt>
      <trkpt lat="46.529254" lon="10.162559">
        <time>1970-01-01T00:00:00+00:00</time>
        <ele>2360.0</ele>
      </trkpt>
      <trkpt lat="46.52943" lon="10.162769">
        <time>1970-01-01T00:00:00+00:00</time>
        <ele>2357.0</ele>
      </trkpt>
      <trkpt lat="46.529493" lon="10.162789">
        <time>1970-01-01T00:00:00+00:00</time>
        <ele>2356.0</ele>
      </trkpt>
      <trkpt lat="46.52961" lon="10.162876">
        <time>1970-01-01T00:00:00+00:00</time>
        <ele>2355.0</ele>
      </trkpt>
      <trkpt lat="46.529691" lon="10.162884">
        <time>1970-01-01T00:00:00+00:00</time>
        <ele>2354.0</ele>
      </trkpt>
      <trkpt lat="46.529751" lon="10.162891">
        <time>1970-01-01T00:00:00+00:00</time>
        <ele>2354.0</ele>
      </trkpt>
      <trkpt lat="46.530246" lon="10.162735">
        <time>1970-01-01T00:00:00+00:00</time>
        <ele>2349.0</ele>
      </trkpt>
      <trkpt lat="46.530427" lon="10.162655">
        <time>1970-01-01T00:00:00+00:00</time>
        <ele>2347.0</ele>
      </trkpt>
      <trkpt lat="46.530906" lon="10.16252">
        <time>1970-01-01T00:00:00+00:00</time>
        <ele>2338.0</ele>
      </trkpt>
      <trkpt lat="46.531184" lon="10.162464">
        <time>1970-01-01T00:00:00+00:00</time>
        <ele>2338.0</ele>
      </trkpt>
      <trkpt lat="46.531246" lon="10.162428">
        <time>1970-01-01T00:00:00+00:00</time>
        <ele>2338.0</ele>
      </trkpt>
      <trkpt lat="46.53135" lon="10.162283">
        <time>1970-01-01T00:00:00+00:00</time>
        <ele>2338.0</ele>
      </trkpt>
      <trkpt lat="46.531501" lon="10.161914">
        <time>1970-01-01T00:00:00+00:00</time>
        <ele>2338.0</ele>
      </trkpt>
      <trkpt lat="46.531685" lon="10.161732">
        <time>1970-01-01T00:00:00+00:00</time>
        <ele>2338.0</ele>
      </trkpt>
      <trkpt lat="46.531936" lon="10.16163">
        <time>1970-01-01T00:00:00+00:00</time>
        <ele>2339.0</ele>
      </trkpt>
      <trkpt lat="46.532209" lon="10.161582">
        <time>1970-01-01T00:00:00+00:00</time>
        <ele>2336.0</ele>
      </trkpt>
      <trkpt lat="46.532508" lon="10.161405">
        <time>1970-01-01T00:00:00+00:00</time>
        <ele>2332.0</ele>
      </trkpt>
      <trkpt lat="46.533015" lon="10.161">
        <time>1970-01-01T00:00:00+00:00</time>
        <ele>2321.0</ele>
      </trkpt>
      <trkpt lat="46.533139" lon="10.161002">
        <time>1970-01-01T00:00:00+00:00</time>
        <ele>2319.0</ele>
      </trkpt>
      <trkpt lat="46.53321" lon="10.161132">
        <time>1970-01-01T00:00:00+00:00</time>
        <ele>2317.0</ele>
      </trkpt>
      <trkpt lat="46.533221" lon="10.161391">
        <time>1970-01-01T00:00:00+00:00</time>
        <ele>2314.0</ele>
      </trkpt>
      <trkpt lat="46.533178" lon="10.162184">
        <time>1970-01-01T00:00:00+00:00</time>
        <ele>2304.0</ele>
      </trkpt>
      <trkpt lat="46.533014" lon="10.162746">
        <time>1970-01-01T00:00:00+00:00</time>
        <ele>2301.0</ele>
      </trkpt>
      <trkpt lat="46.532951" lon="10.163192">
        <time>1970-01-01T00:00:00+00:00</time>
        <ele>2294.0</ele>
      </trkpt>
      <trkpt lat="46.532735" lon="10.163876">
        <time>1970-01-01T00:00:00+00:00</time>
        <ele>2288.0</ele>
      </trkpt>
      <trkpt lat="46.53273" lon="10.163969">
        <time>1970-01-01T00:00:00+00:00</time>
        <ele>2286.0</ele>
      </trkpt>
      <trkpt lat="46.532749" lon="10.164057">
        <time>1970-01-01T00:00:00+00:00</time>
        <ele>2285.0</ele>
      </trkpt>
      <trkpt lat="46.53287" lon="10.164149">
        <time>1970-01-01T00:00:00+00:00</time>
        <ele>2282.0</ele>
      </trkpt>
      <trkpt lat="46.533254" lon="10.164317">
        <time>1970-01-01T00:00:00+00:00</time>
        <ele>2276.0</ele>
      </trkpt>
      <trkpt lat="46.533623" lon="10.164521">
        <time>1970-01-01T00:00:00+00:00</time>
        <ele>2267.0</ele>
      </trkpt>
      <trkpt lat="46.533914" lon="10.164655">
        <time>1970-01-01T00:00:00+00:00</time>
        <ele>2261.0</ele>
      </trkpt>
      <trkpt lat="46.53422" lon="10.164655">
        <time>1970-01-01T00:00:00+00:00</time>
        <ele>2258.0</ele>
      </trkpt>
      <trkpt lat="46.535311" lon="10.164829">
        <time>1970-01-01T00:00:00+00:00</time>
        <ele>2251.0</ele>
      </trkpt>
      <trkpt lat="46.535572" lon="10.164777">
        <time>1970-01-01T00:00:00+00:00</time>
        <ele>2251.0</ele>
      </trkpt>
      <trkpt lat="46.535838" lon="10.164767">
        <time>1970-01-01T00:00:00+00:00</time>
        <ele>2249.0</ele>
      </trkpt>
      <trkpt lat="46.536154" lon="10.16487">
        <time>1970-01-01T00:00:00+00:00</time>
        <ele>2245.0</ele>
      </trkpt>
      <trkpt lat="46.536412" lon="10.165004">
        <time>1970-01-01T00:00:00+00:00</time>
        <ele>2239.0</ele>
      </trkpt>
      <trkpt lat="46.536547" lon="10.164944">
        <time>1970-01-01T00:00:00+00:00</time>
        <ele>2236.0</ele>
      </trkpt>
      <trkpt lat="46.53666" lon="10.16479">
        <time>1970-01-01T00:00:00+00:00</time>
        <ele>2235.0</ele>
      </trkpt>
      <trkpt lat="46.53677" lon="10.164452">
        <time>1970-01-01T00:00:00+00:00</time>
        <ele>2233.0</ele>
      </trkpt>
      <trkpt lat="46.536899" lon="10.1642">
        <time>1970-01-01T00:00:00+00:00</time>
        <ele>2230.0</ele>
      </trkpt>
      <trkpt lat="46.537003" lon="10.164157">
        <time>1970-01-01T00:00:00+00:00</time>
        <ele>2229.0</ele>
      </trkpt>
      <trkpt lat="46.537117" lon="10.164232">
        <time>1970-01-01T00:00:00+00:00</time>
        <ele>2227.0</ele>
      </trkpt>
      <trkpt lat="46.537293" lon="10.164597">
        <time>1970-01-01T00:00:00+00:00</time>
        <ele>2225.0</ele>
      </trkpt>
      <trkpt lat="46.537344" lon="10.164769">
        <time>1970-01-01T00:00:00+00:00</time>
        <ele>2224.0</ele>
      </trkpt>
      <trkpt lat="46.537433" lon="10.164907">
        <time>1970-01-01T00:00:00+00:00</time>
        <ele>2222.0</ele>
      </trkpt>
      <trkpt lat="46.537527" lon="10.164907">
        <time>1970-01-01T00:00:00+00:00</time>
        <ele>2221.0</ele>
      </trkpt>
      <trkpt lat="46.537698" lon="10.165022">
        <time>1970-01-01T00:00:00+00:00</time>
        <ele>2218.0</ele>
      </trkpt>
      <trkpt lat="46.537811" lon="10.165221">
        <time>1970-01-01T00:00:00+00:00</time>
        <ele>2216.0</ele>
      </trkpt>
      <trkpt lat="46.53791" lon="10.165476">
        <time>1970-01-01T00:00:00+00:00</time>
        <ele>2213.0</ele>
      </trkpt>
      <trkpt lat="46.537929" lon="10.165699">
        <time>1970-01-01T00:00:00+00:00</time>
        <ele>2213.0</ele>
      </trkpt>
      <trkpt lat="46.537892" lon="10.165924">
        <time>1970-01-01T00:00:00+00:00</time>
        <ele>2212.0</ele>
      </trkpt>
      <trkpt lat="46.537886" lon="10.166217">
        <time>1970-01-01T00:00:00+00:00</time>
        <ele>2212.0</ele>
      </trkpt>
      <trkpt lat="46.537895" lon="10.166262">
        <time>1970-01-01T00:00:00+00:00</time>
        <ele>2212.0</ele>
      </trkpt>
      <trkpt lat="46.537922" lon="10.166302">
        <time>1970-01-01T00:00:00+00:00</time>
        <ele>2212.0</ele>
      </trkpt>
      <trkpt lat="46.537984" lon="10.166243">
        <time>1970-01-01T00:00:00+00:00</time>
        <ele>2211.0</ele>
      </trkpt>
      <trkpt lat="46.537848" lon="10.166528">
        <time>1970-01-01T00:00:00+00:00</time>
        <ele>2211.0</ele>
      </trkpt>
      <trkpt lat="46.537338" lon="10.167161">
        <time>1970-01-01T00:00:00+00:00</time>
        <ele>2210.0</ele>
      </trkpt>
      <trkpt lat="46.536778" lon="10.168147">
        <time>1970-01-01T00:00:00+00:00</time>
        <ele>2198.0</ele>
      </trkpt>
      <trkpt lat="46.536175" lon="10.168791">
        <time>1970-01-01T00:00:00+00:00</time>
        <ele>2192.0</ele>
      </trkpt>
      <trkpt lat="46.535832" lon="10.169242">
        <time>1970-01-01T00:00:00+00:00</time>
        <ele>2187.0</ele>
      </trkpt>
      <trkpt lat="46.534931" lon="10.170035">
        <time>1970-01-01T00:00:00+00:00</time>
        <ele>2174.0</ele>
      </trkpt>
      <trkpt lat="46.534583" lon="10.170247">
        <time>1970-01-01T00:00:00+00:00</time>
        <ele>2170.0</ele>
      </trkpt>
      <trkpt lat="46.534309" lon="10.170379">
        <time>1970-01-01T00:00:00+00:00</time>
        <ele>2168.0</ele>
      </trkpt>
      <trkpt lat="46.533279" lon="10.170808">
        <time>1970-01-01T00:00:00+00:00</time>
        <ele>2156.0</ele>
      </trkpt>
      <trkpt lat="46.532959" lon="10.170744">
        <time>1970-01-01T00:00:00+00:00</time>
        <ele>2153.0</ele>
      </trkpt>
      <trkpt lat="46.532463" lon="10.170501">
        <time>1970-01-01T00:00:00+00:00</time>
        <ele>2146.0</ele>
      </trkpt>
      <trkpt lat="46.532233" lon="10.17025">
        <time>1970-01-01T00:00:00+00:00</time>
        <ele>2143.0</ele>
      </trkpt>
      <trkpt lat="46.532178" lon="10.170274">
        <time>1970-01-01T00:00:00+00:00</time>
        <ele>2142.0</ele>
      </trkpt>
      <trkpt lat="46.532164" lon="10.170301">
        <time>1970-01-01T00:00:00+00:00</time>
        <ele>2142.0</ele>
      </trkpt>
      <trkpt lat="46.53192" lon="10.170403">
        <time>1970-01-01T00:00:00+00:00</time>
        <ele>2142.0</ele>
      </trkpt>
      <trkpt lat="46.531456" lon="10.171093">
        <time>1970-01-01T00:00:00+00:00</time>
        <ele>2137.0</ele>
      </trkpt>
      <trkpt lat="46.531388" lon="10.171095">
        <time>1970-01-01T00:00:00+00:00</time>
        <ele>2137.0</ele>
      </trkpt>
      <trkpt lat="46.531353" lon="10.171074">
        <time>1970-01-01T00:00:00+00:00</time>
        <ele>2137.0</ele>
      </trkpt>
      <trkpt lat="46.531308" lon="10.171097">
        <time>1970-01-01T00:00:00+00:00</time>
        <ele>2137.0</ele>
      </trkpt>
      <trkpt lat="46.531347" lon="10.171199">
        <time>1970-01-01T00:00:00+00:00</time>
        <ele>2136.0</ele>
      </trkpt>
      <trkpt lat="46.53122" lon="10.171438">
        <time>1970-01-01T00:00:00+00:00</time>
        <ele>2133.0</ele>
      </trkpt>
      <trkpt lat="46.531133" lon="10.171654">
        <time>1970-01-01T00:00:00+00:00</time>
        <ele>2130.0</ele>
      </trkpt>
      <trkpt lat="46.530988" lon="10.171941">
        <time>1970-01-01T00:00:00+00:00</time>
        <ele>2126.0</ele>
      </trkpt>
      <trkpt lat="46.530863" lon="10.172099">
        <time>1970-01-01T00:00:00+00:00</time>
        <ele>2126.0</ele>
      </trkpt>
      <trkpt lat="46.530714" lon="10.17222">
        <time>1970-01-01T00:00:00+00:00</time>
        <ele>2123.0</ele>
      </trkpt>
    </trkseg>
  </trk>
</gpx>
